"Period start","avg(HW err(1)/warn(2) (#))","avg(Visibility (m))","avg(Weather code (#))","avg(Precip intensity (mm/h))","min(HW err(1)/warn(2) (#))","max(HW err(1)/warn(2) (#))","std(HW err(1)/warn(2) (#))","med(HW err(1)/warn(2) (#))","min(Visibility (m))","max(Visibility (m))","std(Visibility (m))","med(Visibility (m))","min(Weather code (#))","max(Weather code (#))","std(Weather code (#))","med(Weather code (#))","min(Precip intensity (mm/h))","max(Precip intensity (mm/h))","std(Precip intensity (mm/h))","med(Precip intensity (mm/h))"
2013-08-04 00:00:00,2,47720,0,0.00,2,2,0,2,37962,50000,4034,50000,0,0,0,0,0.00,0.00,0.00,0.00
2013-08-04 00:10:00,2,46339,0,0.00,2,2,0,2,36347,50000,4713,48689,0,0,0,0,0.00,0.00,0.00,0.00
2013-08-04 00:20:00,2,43619,0,0.00,2,2,0,2,36156,50000,4963,42549,0,0,0,0,0.00,0.00,0.00,0.00
2013-08-04 00:30:00,2,49448,0,0.00,2,2,0,2,46612,50000,1076,50000,0,0,0,0,0.00,0.00,0.00,0.00
2013-08-04 00:40:00,2,48632,0,0.00,2,2,0,2,43832,50000,2181,50000,0,0,0,0,0.00,0.00,0.00,0.00
2013-08-04 00:50:00,2,49326,0,0.00,2,2,0,2,46539,50000,1218,50000,0,0,0,0,0.00,0.00,0.00,0.00
2013-08-04 01:00:00,2,49289,0,0.00,2,2,0,2,46345,50000,1122,50000,0,0,0,0,0.00,0.00,0.00,0.00
2013-08-04 01:10:00,2,46144,0,0.00,2,2,0,2,36554,50000,4410,47668,0,0,0,0,0.00,0.00,0.00,0.00
2013-08-04 01:20:00,2,47734,0,0.00,2,2,0,2,44438,50000,1805,48472,0,0,0,0,0.00,0.00,0.00,0.00
2013-08-04 01:30:00,2,46598,0,0.00,2,2,0,2,38997,50000,4321,49248,0,0,0,0,0.00,0.00,0.00,0.00
2013-08-04 01:40:00,2,46520,0,0.00,2,2,0,2,33658,50000,4764,47808,0,0,0,0,0.00,0.00,0.00,0.00
2013-08-04 01:50:00,2,47707,0,0.00,2,2,0,2,44208,50000,1897,47510,0,0,0,0,0.00,0.00,0.00,0.00
2013-08-04 02:00:00,2,44669,0,0.00,2,2,0,2,32740,50000,4999,46004,0,0,0,0,0.00,0.00,0.00,0.00
2013-08-04 02:10:00,2,47933,0,0.00,2,2,0,2,43915,50000,2061,48852,0,0,0,0,0.00,0.00,0.00,0.00
2013-08-04 02:20:00,2,43618,0,0.00,2,2,0,2,30709,50000,6239,44370,0,0,0,0,0.00,0.00,0.00,0.00
2013-08-04 02:30:00,2,44092,0,0.00,2,2,0,2,29815,50000,6201,45330,0,0,0,0,0.00,0.00,0.00,0.00
2013-08-04 02:40:00,2,44211,0,0.00,2,2,0,2,30652,50000,6436,47313,0,0,0,0,0.00,0.00,0.00,0.00
2013-08-04 02:50:00,2,46106,0,0.00,2,2,0,2,41527,50000,3389,46390,0,0,0,0,0.00,0.00,0.00,0.00
2013-08-04 03:00:00,2,46999,0,0.00,2,2,0,2,36249,50000,4326,49506,0,0,0,0,0.00,0.00,0.00,0.00
2013-08-04 03:10:00,2,47434,0,0.00,2,2,0,2,42005,50000,2657,48347,0,0,0,0,0.00,0.00,0.00,0.00
2013-08-04 03:20:00,2,47326,0,0.00,2,2,0,2,39845,50000,3726,50000,0,0,0,0,0.00,0.00,0.00,0.00
2013-08-04 03:30:00,2,46873,0,0.00,2,2,0,2,35867,50000,4746,49547,0,0,0,0,0.00,0.00,0.00,0.00
2013-08-04 03:40:00,2,48665,0,0.00,2,2,0,2,41948,50000,2740,50000,0,0,0,0,0.00,0.00,0.00,0.00
2013-08-04 03:50:00,2,49077,0,0.00,2,2,0,2,45160,50000,1744,50000,0,0,0,0,0.00,0.00,0.00,0.00
2013-08-04 04:00:00,2,49353,0,0.00,0,2,1,2,45800,50000,1364,50000,0,0,0,0,0.00,0.00,0.00,0.00
2013-08-04 04:10:00,2,47567,0,0.00,2,2,0,2,39858,50000,3908,50000,0,0,0,0,0.00,0.00,0.00,0.00
2013-08-04 04:20:00,2,46265,0,0.00,2,2,0,2,36894,50000,4516,48174,0,0,0,0,0.00,0.00,0.00,0.00
2013-08-04 04:30:00,2,46630,0,0.00,0,2,1,2,39011,50000,4370,49562,0,0,0,0,0.00,0.00,0.00,0.00
2013-08-04 04:40:00,2,48640,0,0.00,2,2,0,2,43190,50000,2719,50000,0,0,0,0,0.00,0.00,0.00,0.00
2013-08-04 04:50:00,2,49323,0,0.00,2,2,0,2,46378,50000,1168,50000,0,0,0,0,0.00,0.00,0.00,0.00
2013-08-04 05:00:00,2,46296,0,0.00,2,2,0,2,38130,50000,4070,47650,0,0,0,0,0.00,0.00,0.00,0.00
2013-08-04 05:10:00,2,46783,0,0.00,2,2,0,2,40053,50000,3937,49474,0,0,0,0,0.00,0.00,0.00,0.00
2013-08-04 05:20:00,2,47490,0,0.00,2,2,0,2,42062,50000,2921,48434,0,0,0,0,0.00,0.00,0.00,0.00
2013-08-04 05:30:00,2,47291,0,0.00,2,2,0,2,35634,50000,5322,50000,0,0,0,0,0.00,0.00,0.00,0.00
2013-08-04 05:40:00,2,34700,0,0.00,2,2,0,2,9076,50000,12956,37856,0,0,0,0,0.00,0.00,0.00,0.00
2013-08-04 05:50:00,2,36162,0,0.00,2,2,0,2,9043,50000,14258,41142,0,0,0,0,0.00,0.00,0.00,0.00
2013-08-04 06:00:00,2,47675,0,0.00,2,2,0,2,41560,50000,2847,49114,0,0,0,0,0.00,0.00,0.00,0.00
2013-08-04 06:10:00,2,48072,0,0.00,2,2,0,2,41940,50000,2987,49514,0,0,0,0,0.00,0.00,0.00,0.00
2013-08-04 06:20:00,2,49210,0,0.00,2,2,0,2,45336,50000,1588,50000,0,0,0,0,0.00,0.00,0.00,0.00
2013-08-04 06:30:00,2,45614,0,0.00,2,2,0,2,35349,50000,5471,48282,0,0,0,0,0.00,0.00,0.00,0.00
2013-08-04 06:40:00,2,46539,0,0.00,2,2,0,2,37189,50000,3870,47165,0,0,0,0,0.00,0.00,0.00,0.00
2013-08-04 06:50:00,2,48558,0,0.00,0,2,1,2,37144,50000,3823,50000,0,0,0,0,0.00,0.00,0.00,0.00
2013-08-04 07:00:00,0,49256,0,0.00,0,0,0,0,43817,50000,1851,50000,0,0,0,0,0.00,0.00,0.00,0.00
2013-08-04 07:10:00,0,47628,0,0.00,0,0,0,0,39427,50000,3430,50000,0,0,0,0,0.00,0.00,0.00,0.00
2013-08-04 07:20:00,0,48832,0,0.00,0,0,0,0,42342,50000,2348,50000,0,0,0,0,0.00,0.00,0.00,0.00
2013-08-04 07:30:00,0,47277,0,0.00,0,0,0,0,40524,50000,3646,49952,0,0,0,0,0.00,0.00,0.00,0.00
2013-08-04 07:40:00,0,49858,0,0.00,0,0,0,0,48992,50000,313,50000,0,0,0,0,0.00,0.00,0.00,0.00
2013-08-04 07:50:00,0,43708,0,0.00,0,0,0,0,34277,50000,5492,44334,0,0,0,0,0.00,0.00,0.00,0.00
2013-08-04 08:00:00,0,49323,0,0.00,0,0,0,0,46117,50000,1372,50000,0,0,0,0,0.00,0.00,0.00,0.00
2013-08-04 08:10:00,0,48040,0,0.00,0,0,0,0,43393,50000,2288,49057,0,0,0,0,0.00,0.00,0.00,0.00
2013-08-04 08:20:00,0,49934,0,0.00,0,0,0,0,49427,50000,170,50000,0,0,0,0,0.00,0.00,0.00,0.00
2013-08-04 08:30:00,0,46812,0,0.00,0,0,0,0,37609,50000,4266,48984,0,0,0,0,0.00,0.00,0.00,0.00
2013-08-04 08:40:00,0,47650,0,0.00,0,0,0,0,37774,50000,4122,50000,0,0,0,0,0.00,0.00,0.00,0.00
2013-08-04 08:50:00,0,49965,0,0.00,0,0,0,0,49689,50000,93,50000,0,0,0,0,0.00,0.00,0.00,0.00
2013-08-04 09:00:00,0,45144,0,0.00,0,0,0,0,22097,50000,9438,50000,0,0,0,0,0.00,0.00,0.00,0.00
2013-08-04 09:10:00,0,46489,0,0.00,0,0,0,0,14890,50000,10533,50000,0,0,0,0,0.00,0.00,0.00,0.00
2013-08-04 09:20:00,0,40194,0,0.00,0,0,0,0,18432,50000,11535,45638,0,0,0,0,0.00,0.00,0.00,0.00
2013-08-04 09:30:00,0,50000,0,0.00,0,0,0,0,50000,50000,0,50000,0,0,0,0,0.00,0.00,0.00,0.00
2013-08-04 09:40:00,0,50000,0,0.00,0,0,0,0,50000,50000,0,50000,0,0,0,0,0.00,0.00,0.00,0.00
2013-08-04 09:50:00,0,41602,0,0.00,0,0,0,0,11364,50000,12546,49846,0,0,0,0,0.00,0.00,0.00,0.00
2013-08-04 10:00:00,0,50000,0,0.00,0,0,0,0,50000,50000,0,50000,0,0,0,0,0.00,0.00,0.00,0.00
2013-08-04 10:10:00,0,50000,0,0.00,0,0,0,0,50000,50000,0,50000,0,0,0,0,0.00,0.00,0.00,0.00
2013-08-04 10:20:00,0,50000,0,0.00,0,0,0,0,50000,50000,0,50000,0,0,0,0,0.00,0.00,0.00,0.00
2013-08-04 10:30:00,0,50000,0,0.00,0,0,0,0,50000,50000,0,50000,0,0,0,0,0.00,0.00,0.00,0.00
2013-08-04 10:40:00,0,50000,0,0.00,0,0,0,0,50000,50000,0,50000,0,0,0,0,0.00,0.00,0.00,0.00
2013-08-04 10:50:00,0,50000,0,0.00,0,0,0,0,50000,50000,0,50000,0,0,0,0,0.00,0.00,0.00,0.00
2013-08-04 11:00:00,0,50000,0,0.00,0,0,0,0,50000,50000,0,50000,0,0,0,0,0.00,0.00,0.00,0.00
2013-08-04 11:10:00,0,50000,0,0.00,0,0,0,0,50000,50000,0,50000,0,0,0,0,0.00,0.00,0.00,0.00
2013-08-04 11:20:00,0,50000,0,0.00,0,0,0,0,50000,50000,0,50000,0,0,0,0,0.00,0.00,0.00,0.00
2013-08-04 11:30:00,0,50000,0,0.00,0,0,0,0,50000,50000,0,50000,0,0,0,0,0.00,0.00,0.00,0.00
2013-08-04 11:40:00,0,49574,0,0.00,0,0,0,0,46383,50000,1081,50000,0,0,0,0,0.00,0.00,0.00,0.00
2013-08-04 11:50:00,0,50000,0,0.00,0,0,0,0,50000,50000,0,50000,0,0,0,0,0.00,0.00,0.00,0.00
2013-08-04 12:00:00,0,50000,0,0.00,0,0,0,0,50000,50000,0,50000,0,0,0,0,0.00,0.00,0.00,0.00
2013-08-04 12:10:00,0,50000,0,0.00,0,0,0,0,50000,50000,0,50000,0,0,0,0,0.00,0.00,0.00,0.00
2013-08-04 12:20:00,0,50000,0,0.00,0,0,0,0,50000,50000,0,50000,0,0,0,0,0.00,0.00,0.00,0.00
2013-08-04 12:30:00,0,50000,0,0.00,0,0,0,0,50000,50000,0,50000,0,0,0,0,0.00,0.00,0.00,0.00
2013-08-04 12:40:00,0,50000,0,0.00,0,0,0,0,50000,50000,0,50000,0,0,0,0,0.00,0.00,0.00,0.00
2013-08-04 12:50:00,0,50000,0,0.00,0,0,0,0,50000,50000,0,50000,0,0,0,0,0.00,0.00,0.00,0.00
2013-08-04 13:00:00,0,50000,0,0.00,0,0,0,0,50000,50000,0,50000,0,0,0,0,0.00,0.00,0.00,0.00
2013-08-04 13:10:00,0,50000,0,0.00,0,0,0,0,50000,50000,0,50000,0,0,0,0,0.00,0.00,0.00,0.00
2013-08-04 13:20:00,0,49976,0,0.00,0,0,0,0,49765,50000,70,50000,0,0,0,0,0.00,0.00,0.00,0.00
2013-08-04 13:30:00,0,49265,0,0.00,0,0,0,0,46132,50000,1386,50000,0,0,0,0,0.00,0.00,0.00,0.00
2013-08-04 13:40:00,0,49433,0,0.00,0,0,0,0,47070,50000,1135,50000,0,0,0,0,0.00,0.00,0.00,0.00
2013-08-04 13:50:00,0,49908,0,0.00,0,0,0,0,49079,50000,276,50000,0,0,0,0,0.00,0.00,0.00,0.00
2013-08-04 14:00:00,0,49034,0,0.00,0,0,0,0,46157,50000,1504,50000,0,0,0,0,0.00,0.00,0.00,0.00
2013-08-04 14:10:00,0,49866,0,0.00,0,0,0,0,48658,50000,403,50000,0,0,0,0,0.00,0.00,0.00,0.00
2013-08-04 14:20:00,0,49757,0,0.00,0,0,0,0,48354,50000,519,50000,0,0,0,0,0.00,0.00,0.00,0.00
2013-08-04 14:30:00,0,49930,0,0.00,0,0,0,0,49297,50000,211,50000,0,0,0,0,0.00,0.00,0.00,0.00
2013-08-04 14:40:00,0,49971,0,0.00,0,0,0,0,49712,50000,86,50000,0,0,0,0,0.00,0.00,0.00,0.00
2013-08-04 14:50:00,0,49001,0,0.00,0,0,0,0,45668,50000,1467,49856,0,0,0,0,0.00,0.00,0.00,0.00
2013-08-04 15:00:00,0,49982,0,0.00,0,0,0,0,49823,50000,53,50000,0,0,0,0,0.00,0.00,0.00,0.00
2013-08-04 15:10:00,0,50000,0,0.00,0,0,0,0,50000,50000,0,50000,0,0,0,0,0.00,0.00,0.00,0.00
2013-08-04 15:20:00,0,50000,0,0.00,0,0,0,0,50000,50000,0,50000,0,0,0,0,0.00,0.00,0.00,0.00
2013-08-04 15:30:00,0,50000,0,0.00,0,0,0,0,50000,50000,0,50000,0,0,0,0,0.00,0.00,0.00,0.00
2013-08-04 15:40:00,0,35818,0,0.00,0,0,0,0,9572,50000,16646,44228,0,0,0,0,0.00,0.00,0.00,0.00
2013-08-04 15:50:00,1,11006,0,0.00,0,2,1,2,5709,16984,3458,10406,0,0,0,0,0.00,0.00,0.00,0.00
2013-08-04 16:00:00,2,29864,0,0.00,2,2,0,2,23336,39308,4206,29500,0,0,0,0,0.00,0.00,0.00,0.00
2013-08-04 16:10:00,2,48732,0,0.00,2,2,0,2,40880,50000,2824,50000,0,0,0,0,0.00,0.00,0.00,0.00
2013-08-04 16:20:00,2,40675,0,0.00,2,2,0,2,20406,50000,10406,45060,0,0,0,0,0.00,0.00,0.00,0.00
2013-08-04 16:30:00,2,33610,0,0.00,2,2,0,2,13746,50000,10785,35520,0,0,0,0,0.00,0.00,0.00,0.00
2013-08-04 16:40:00,2,25897,0,0.00,2,2,0,2,17554,46767,9154,22236,0,0,0,0,0.00,0.00,0.00,0.00
2013-08-04 16:50:00,2,17629,0,0.00,2,2,0,2,15973,19954,1084,17718,0,0,0,0,0.00,0.00,0.00,0.00
2013-08-04 17:00:00,2,16777,0,0.00,2,2,0,2,14791,18036,811,16874,0,0,0,0,0.00,0.00,0.00,0.00
2013-08-04 17:10:00,2,15226,0,0.00,2,2,0,2,14263,15945,499,15218,0,0,0,0,0.00,0.00,0.00,0.00
2013-08-04 17:20:00,2,17247,0,0.00,2,2,0,2,15673,19448,952,17088,0,0,0,0,0.00,0.00,0.00,0.00
2013-08-04 17:30:00,2,20193,0,0.00,2,2,0,2,18533,21441,743,20233,0,0,0,0,0.00,0.00,0.00,0.00
2013-08-04 17:40:00,2,15939,0,0.00,2,2,0,2,11179,19558,2467,16452,0,0,0,0,0.00,0.00,0.00,0.00
2013-08-04 17:50:00,2,12024,0,0.00,2,2,0,2,9855,13949,1107,12280,0,0,0,0,0.00,0.00,0.00,0.00
2013-08-04 18:00:00,2,10829,0,0.00,2,2,0,2,10013,11442,445,10799,0,0,0,0,0.00,0.00,0.00,0.00
2013-08-04 18:10:00,2,14315,0,0.00,2,2,0,2,11017,17670,2202,14316,0,0,0,0,0.00,0.00,0.00,0.00
2013-08-04 18:20:00,2,14801,0,0.00,2,2,0,2,11616,18011,2012,14513,0,0,0,0,0.00,0.00,0.00,0.00
2013-08-04 18:30:00,2,14482,0,0.00,2,2,0,2,10443,22514,3831,12320,0,0,0,0,0.00,0.00,0.00,0.00
2013-08-04 18:40:00,2,11524,0,0.00,2,2,0,2,9738,14546,1417,11056,0,0,0,0,0.00,0.00,0.00,0.00
2013-08-04 18:50:00,2,11877,0,0.00,2,2,0,2,9439,14592,1603,11325,0,0,0,0,0.00,0.00,0.00,0.00
2013-08-04 19:00:00,2,9315,0,0.00,2,2,0,2,7226,11536,1466,9034,0,0,0,0,0.00,0.00,0.00,0.00
2013-08-04 19:10:00,2,6015,10,0.00,2,2,0,2,5033,7137,589,5920,10,10,0,10,0.00,0.00,0.00,0.00
2013-08-04 19:20:00,2,5355,10,0.00,2,2,0,2,4469,6782,639,5155,10,10,0,10,0.00,0.00,0.00,0.00
2013-08-04 19:30:00,2,6906,10,0.00,2,2,0,2,5197,8732,1234,7244,10,10,0,10,0.00,0.00,0.00,0.00
2013-08-04 19:40:00,2,10270,10,0.00,2,2,0,2,7029,16111,2668,9838,10,10,0,10,0.00,0.00,0.00,0.00
2013-08-04 19:50:00,2,17257,3,0.00,2,2,0,2,13546,22822,2799,16240,0,10,5,0,0.00,0.00,0.00,0.00
2013-08-04 20:00:00,2,20443,0,0.00,2,2,0,2,17713,25169,2139,19878,0,0,0,0,0.00,0.00,0.00,0.00
2013-08-04 20:10:00,2,37178,0,0.00,2,2,0,2,31419,43742,3917,36948,0,0,0,0,0.00,0.00,0.00,0.00
2013-08-04 20:20:00,2,37119,0,0.00,2,2,0,2,31747,45658,4194,35984,0,0,0,0,0.00,0.00,0.00,0.00
2013-08-04 20:30:00,2,26546,0,0.00,2,2,0,2,15949,44174,9250,22084,0,0,0,0,0.00,0.00,0.00,0.00
2013-08-04 20:40:00,2,21720,0,0.00,2,2,0,2,16298,26832,3143,21679,0,0,0,0,0.00,0.00,0.00,0.00
2013-08-04 20:50:00,2,19887,0,0.00,2,2,0,2,16123,23476,2007,19702,0,0,0,0,0.00,0.00,0.00,0.00
2013-08-04 21:00:00,2,11425,0,0.00,2,2,0,2,7945,14760,2355,11461,0,0,0,0,0.00,0.00,0.00,0.00
2013-08-04 21:10:00,2,13598,0,0.00,2,2,0,2,9051,23643,5016,11776,0,0,0,0,0.00,0.00,0.00,0.00
2013-08-04 21:20:00,2,10748,0,0.00,2,2,0,2,9483,13536,1286,10080,0,0,0,0,0.00,0.00,0.00,0.00
2013-08-04 21:30:00,2,12150,0,0.00,2,2,0,2,10254,14127,1151,12027,0,0,0,0,0.00,0.00,0.00,0.00
2013-08-04 21:40:00,2,12294,0,0.00,2,2,0,2,7462,22925,4989,11298,0,0,0,0,0.00,0.00,0.00,0.00
2013-08-04 21:50:00,2,14992,8,0.00,2,2,0,2,5756,21730,5863,17113,0,10,4,10,0.00,0.00,0.00,0.00
2013-08-04 22:00:00,2,3916,8,0.00,2,2,0,2,3007,7818,1331,3448,0,10,4,10,0.00,0.00,0.00,0.00
2013-08-04 22:10:00,2,5150,10,0.00,2,2,0,2,3308,7786,1453,5250,10,10,0,10,0.00,0.00,0.00,0.00
2013-08-04 22:20:00,2,5785,10,0.00,2,2,0,2,3476,8090,1500,5906,10,10,0,10,0.00,0.00,0.00,0.00
2013-08-04 22:30:00,2,3733,28,0.04,2,2,0,2,2741,5967,931,3333,10,61,23,10,0.00,0.25,0.08,0.00
2013-08-04 22:40:00,2,4973,10,0.00,2,2,0,2,3232,6622,846,4895,10,10,0,10,0.00,0.00,0.00,0.00
2013-08-04 22:50:00,2,4494,10,0.00,2,2,0,2,3514,6043,695,4606,10,10,0,10,0.00,0.00,0.00,0.00
2013-08-04 23:00:00,2,13867,10,0.00,2,2,0,2,6609,21970,5339,15818,10,10,0,10,0.00,0.00,0.00,0.00
2013-08-04 23:10:00,2,11873,4,0.00,2,2,0,2,4255,25649,7837,8373,0,10,5,0,0.00,0.00,0.00,0.00
2013-08-04 23:20:00,2,8144,10,0.00,2,2,0,2,6273,9720,939,8212,10,10,0,10,0.00,0.00,0.00,0.00
2013-08-04 23:30:00,2,18520,10,0.00,2,2,0,2,6381,29503,8044,18434,10,10,0,10,0.00,0.00,0.00,0.00
2013-08-04 23:40:00,2,40457,0,0.00,2,2,0,2,22486,50000,10161,45024,0,0,0,0,0.00,0.00,0.00,0.00
2013-08-04 23:50:00,2,44964,0,0.00,2,2,0,2,35884,48211,3684,46154,0,0,0,0,0.00,0.00,0.00,0.00
